View from above orbital plane
|
View from above satellite
|
Ground track
|
The orbit data is extracted from the following two-line orbital elements,
1 43879U 18111D 21024.84303815 .00001033 00000-0 96039-4 0 9992
2 43879 97.6935 294.5768 0011832 218.0345 142.0044 14.96469962111577
Epoch (UTC): | 24 January 2021 20:13:58 |
Eccentricity: | 0.0011832 |
inclination: | 97.6935° |
perigee height: | 569 km |
apogee height: | 586 km |
right ascension of ascending node: | 294.5768° |
argument of perigee: | 218.0345° |
revolutions per day: | 14.96469962 |
mean anomaly at epoch: | 142.0044° |
orbit number at epoch: | 11157 |
The dashed part of the orbit path shows where the satellite is in the earth's shadow,
|
|